Battle Creek, MI

5:59 AM EST on November 12, 2019 (GMT -0500)
Kellogg

Weather History for KBTL - July, 2019

Change the Weather History Date:

Monday, July 22, 2019

  Actual Average Record
Temperature  
Mean Temperature 69 °F 71 °F  
Max Temperature 78 °F 82 °F 93 °F (2002)
Min Temperature 60 °F 59 °F 50 °F (1996)
Degree Days  
Heating Degree Days 0 0  
Month to date heating degree days 0 6  
Since 1 June heating degree days 46 63  
Since 1 July heating degree days 0 6  
Cooling Degree Days 4 6  
Month to date cooling degree days 267 144  
Year to date cooling degree days 408 308  
Since 1 June cooling degree days 392 270  
Growing Degree Days 20 (Base 50)    
Moisture  
Dew Point 58 °F    
Average Humidity 75    
Maximum Humidity 100    
Minimum Humidity 49    
Precipitation  
Precipitation 0.00 in 0.11 in 1.97 in (2010)
Month to date precipitation 2.01 2.36  
Year to date precipitation 20.30 17.07  
Sea Level Pressure  
Sea Level Pressure 29.99 in    
Wind  
Wind Speed 8 mph (North)    
Max Wind Speed 18 mph    
Max Gust Speed 25 mph    
Visibility 10 miles    
Events      
T = Trace of Precipitation, MM = Missing Value Source: NWS Daily Summary

Daily Weather History Graph

Daily Weather History Graph

Search for Another Location

Airport or City:

Astronomy

Jul. 22, 2019 Rise Set
Actual Time 6:23 AM EDT 9:10 PM EDT
Civil Twilight 5:50 AM EDT 9:43 PM EDT
Nautical Twilight 5:09 AM EDT 10:24 PM EDT
Astronomical Twilight 4:21 AM EDT 11:12 PM EDT
Moon 12:01 AM EDT (7/22) 11:45 AM EDT (7/22)
Length of Visible Light 15h 52m
Length of Day
14h 46m
Waning Gibbous, 72% of the Moon is Illuminated
Jul 22
Waning Gibbous
Jul 24
Last Quarter
Jul 31
New
Aug 7
First Quarter
Aug 15
Full

Hourly Weather History & Observations

Time (EDT) Temp. Dew Point Humidity Pressure Visibility Wind Dir Wind Speed Gust Speed Precip Events Conditions
12:53 AM 68.0 °F 64.9 °F 90% 29.94 in 10.0 mi North 3.5 mph - N/A   Mostly Cloudy
1:53 AM 66.9 °F 64.9 °F 93% 29.96 in 10.0 mi North 4.6 mph - N/A   Mostly Cloudy
2:53 AM 66.0 °F 64.0 °F 93% 29.95 in 10.0 mi NNE 3.5 mph - N/A   Mostly Cloudy
3:53 AM 64.9 °F 64.0 °F 97% 29.95 in 10.0 mi NE 3.5 mph - N/A   Partly Cloudy
4:53 AM 64.9 °F 64.0 °F 97% 29.95 in 10.0 mi North 5.8 mph - N/A   Overcast
5:53 AM 64.9 °F 63.0 °F 93% 29.95 in 10.0 mi North 6.9 mph - N/A   Scattered Clouds
6:53 AM 64.0 °F 61.0 °F 90% 29.97 in 10.0 mi NNE 8.1 mph - N/A   Scattered Clouds
7:53 AM 64.0 °F 60.1 °F 87% 29.99 in 10.0 mi North 9.2 mph - N/A   Scattered Clouds
8:53 AM 66.9 °F 59.0 °F 76% 29.99 in 10.0 mi North 10.4 mph - N/A   Clear
9:53 AM 69.1 °F 60.1 °F 73% 29.99 in 10.0 mi North 6.9 mph - N/A   Clear
10:53 AM 70.0 °F 59.0 °F 68% 29.99 in 10.0 mi NNW 8.1 mph - N/A   Clear
11:53 AM 69.1 °F 55.9 °F 63% 30.00 in 10.0 mi WNW 8.1 mph - N/A   Clear
12:53 PM 72.0 °F 57.0 °F 59% 30.00 in 10.0 mi WNW 6.9 mph - N/A   Clear
1:53 PM 73.0 °F 54.0 °F 51% 29.99 in 10.0 mi North 12.7 mph 19.6 mph N/A   Clear
2:53 PM 75.0 °F 55.9 °F 51% 29.98 in 10.0 mi NNE 12.7 mph - N/A   Partly Cloudy
3:16 PM 75.9 °F 55.9 °F 50% 30.00 in 10.0 mi NW 12.7 mph - N/A   Mostly Cloudy
3:53 PM 75.9 °F 55.9 °F 50% 29.98 in 10.0 mi North 15.0 mph - N/A   Partly Cloudy
4:02 PM 75.0 °F 55.0 °F 50% 29.99 in 10.0 mi North 12.7 mph - N/A   Partly Cloudy
4:53 PM 75.9 °F 55.9 °F 50% 29.98 in 10.0 mi North 13.8 mph - N/A   Mostly Cloudy
5:53 PM 75.9 °F 57.0 °F 52% 29.99 in 10.0 mi North 10.4 mph - N/A   Partly Cloudy
6:53 PM 75.0 °F 55.9 °F 51% 29.99 in 10.0 mi North 12.7 mph 18.4 mph N/A   Scattered Clouds
7:53 PM 75.0 °F 55.0 °F 50% 29.99 in 10.0 mi North 8.1 mph - N/A   Clear
8:53 PM 71.1 °F 53.1 °F 53% 30.01 in 10.0 mi North 6.9 mph - N/A   Clear
9:53 PM 66.9 °F 51.1 °F 57% 30.02 in 10.0 mi North 8.1 mph - N/A   Clear
10:53 PM 64.9 °F 50.0 °F 58% 30.04 in 10.0 mi North 5.8 mph - N/A   Clear
11:53 PM 63.0 °F 50.0 °F 63% 30.04 in 10.0 mi NW 4.6 mph - N/A   Clear